Wind_Speed
8 2 5 2 3 4 5 3 6 12 6 16 24 19 17 17 6 4 6 17 20 20 21 19 17 17 13 11 11 11 10 8 6 5 8 7 7 8 8 9 10 10 10 9 8 8 8 7 6
6 4 2 2 4 3 3 3 9 14 15 22 22 14 16 8 16 7 15 21 20 23 20 22 25 24 17 16 16 15 13 12 10 9 7 6 5 5 7 10 10 10 12 11 11 11 10 10 9
3 4 3 3 4 5 3 9 10 25 40 18 9 25 9 11 14 7 16 18 20 20 23 23 21 22 23 19 19 18 17 15 14 12 12 12 10 7 6 4 7 11 12 12 12 13 12 12 11
7 1 1 5 9 8 8 15 22 25 25 24 11 14 10 16 7 13 16 19 22 23 23 21 21 23 21 22 21 21 21 20 18 16 14 13 11 12 13 11 11 9 12 13 11 12 13 13 14
6 1 4 5 8 6 16 22 30 24 10 23 11 8 9 11 14 16 19 20 21 20 22 21 20 21 21 21 22 23 21 23 22 21 19 18 16 14 13 12 11 14 13 13 12 12 13 12 14
4 1 4 4 13 8 14 22 34 24 31 17 15 11 9 13 13 16 18 17 18 20 22 23 23 24 23 23 25 24 23 23 24 23 22 21 20 18 18 16 13 14 13 13 14 13 14 18 18
0 3 3 6 7 15 10 12 17 25 24 27 14 10 8 15 14 14 16 16 19 23 26 28 29 30 29 29 27 23 23 24 23 22 23 25 24 21 19 22 21 18 17 15 14 14 15 15 16
3 3 3 8 5 9 17 36 28 23 23 10 8 8 7 16 12 11 13 15 16 17 21 23 25 27 29 30 28 24 28 27 21 22 25 26 25 26 25 25 24 23 22 19 17 16 15 15 16
2 5 5 4 4 5 13 12 27 24 32 33 20 21 16 15 15 18 19 20 23 24 23 25 28 29 30 31 32 32 31 29 26 24 21 20 23 29 28 24 24 24 24 22 21 19 17 16 16
9 5 7 6 9 12 23 20 12 13 22 23 20 15 15 16 18 21 24 27 28 30 30 30 31 31 31 31 31 29 29 28 27 26 28 25 23 21 27 29 25 18 20 22 23 21 22 21 19
6 5 8 16 27 22 17 33 10 10 9 15 14 15 17 18 19 21 23 24 26 27 30 32 32 32 34 35 33 36 36 32 31 32 30 30 31 25 20 23 25 24 23 24 24 24 22 23 22
7 14 11 7 10 10 9 14 22 23 14 10 13 15 16 19 22 23 23 25 28 28 28 29 30 33 33 33 34 35 33 33 34 33 31 29 27 31 30 21 21 27 25 25 22 22 22 22 24
15 12 18 26 30 30 29 21 17 15 14 14 15 17 19 21 22 21 25 27 28 30 31 31 33 32 32 33 34 31 30 31 34 34 33 34 34 30 30 31 23 20 27 22 22 21 19 21 23
15 20 26 20 20 19 27 14 5 11 12 15 17 19 20 21 23 27 31 31 32 35 36 38 34 38 35 34 33 35 35 33 32 29 33 36 30 31 29 27 29 24 21 20 16 15 19 22 23
29 9 12 18 14 10 24 10 5 11 13 15 16 18 20 25 25 29 32 34 39 38 38 37 45 38 37 39 43 39 36 37 37 35 30 30 31 33 31 33 30 30 26 29 34 26 21 21 23
3 5 3 7 14 13 5 3 6 11 13 15 17 21 26 28 28 34 34 34 36 37 41 45 38 44 40 41 39 39 38 38 35 33 34 28 32 30 34 33 32 27 25 27 26 27 27 23 23
6 2 4 0 4 6 3 5 8 11 15 12 20 26 28 30 32 35 34 37 40 42 44 44 44 38 42 40 38 37 35 36 36 33 32 34 30 32 29 30 37 35 28 27 33 27 25 23 22
5 5 4 4 3 9 10 7 5 11 11 14 23 28 31 33 35 36 39 38 42 43 42 47 41 39 40 40 37 35 35 38 35 35 36 36 36 33 35 39 36 38 34 25 29 32 29 28 27
6 1 2 4 7 5 7 8 5 6 11 19 29 33 31 32 36 39 43 40 45 45 47 36 39 45 40 37 34 39 37 33 39 42 46 40 37 36 36 39 37 38 39 35 22 29 29 27 25
5 4 5 7 5 7 8 7 4 2 15 24 30 29 30 36 40 43 43 46 46 48 38 53 37 43 40 36 34 37 40 41 43 44 37 36 39 36 35 33 34 29 35 30 32 28 29 30 26
3 5 1 5 4 7 11 3 3 3 20 26 28 28 34 39 40 43 48 47 46 41 53 47 47 45 42 38 38 39 39 39 37 37 39 37 35 33 33 34 34 32 33 33 29 24 24 30 33
5 1 10 7 2 3 5 1 3 6 8 17 26 35 37 39 41 45 45 47 49 49 50 47 47 44 43 40 38 38 39 40 38 37 36 35 35 35 32 31 35 37 39 36 37 36 33 25 28
8 20 13 3 6 5 3 5 6 7 10 14 25 30 38 40 42 41 48 45 46 52 49 48 44 44 41 39 37 36 37 37 37 37 36 33 31 32 33 33 37 35 34 32 30 31 31 35 28
17 7 7 5 4 3 6 4 5 6 8 13 25 34 37 41 44 44 48 46 52 54 49 48 47 45 42 41 40 39 38 37 38 37 38 36 33 29 29 28 31 31 34 36 35 36 33 29 31
9 8 5 5 5 3 1 8 1 5 7 11 25 34 38 42 36 46 47 50 52 54 52 47 47 48 46 45 44 43 43 42 41 40 40 40 37 34 27 26 27 28 30 32 32 30 28 31 35
5 5 4 3 3 6 7 4 4 2 15 26 30 32 37 39 43 44 45 48 49 50 52 50 51 52 51 50 48 47 46 42 40 37 34 33 36 35 28 22 25 29 27 27 28 28 29 33 33
6 5 4 1 3 2 2 5 4 20 19 28 32 37 40 35 44 46 47 48 46 50 50 51 50 51 52 51 48 47 45 41 38 34 31 31 33 34 33 18 18 21 27 19 24 27 23 26 27
5 2 5 4 4 5 5 2 4 11 18 24 34 38 42 42 45 46 48 48 47 50 48 51 50 49 51 51 52 50 46 43 37 34 30 29 34 26 17 12 12 14 14 16 22 21 25 26 22
6 5 5 3 3 2 4 2 5 6 15 19 33 37 35 42 42 43 45 46 48 49 50 51 50 48 49 52 51 50 47 42 39 35 30 25 26 21 12 5 5 9 11 15 17 15 20 22 24
4 3 4 4 6 1 3 5 9 23 25 29 33 38 36 39 40 43 42 45 49 50 49 50 48 45 47 50 49 49 48 46 46 44 35 22 20 17 12 7 2 4 6 8 12 16 13 17 20
Wind_Direction
354 356 23 35 47 57 21 15 156 43 72 74 67 79 99 58 29 77 320 23 21 25 23 16 14 10 353 353 354 350 340 328 342 14 13 347 303 281 283 283 277 277 272 269 262 258 266 264 256
23 34 351 76 69 61 53 356 61 60 119 92 74 87 49 73 33 52 27 26 23 22 19 26 21 19 4 356 357 355 351 346 331 303 315 348 349 327 293 271 268 270 267 263 261 258 255 260 262
20 5 341 99 84 63 64 0 52 65 35 37 97 50 50 343 19 42 33 30 25 13 14 15 14 19 16 5 3 0 359 356 351 343 333 306 298 298 296 299 273 257 262 265 265 263 259 256 254
10 67 279 79 91 35 63 38 37 32 39 44 93 75 83 39 56 48 34 27 17 16 16 13 15 14 10 9 4 1 1 358 354 349 344 338 327 307 296 290 285 272 251 247 251 256 257 262 260
330 274 64 83 70 80 63 62 54 52 52 41 90 72 89 42 48 42 41 33 26 22 13 8 6 8 8 8 1 358 339 339 344 345 343 338 335 327 318 304 299 288 277 258 254 244 250 258 262
326 302 72 103 63 61 71 58 59 58 41 44 76 92 70 37 39 39 43 31 14 5 354 351 348 348 352 352 349 347 344 342 338 334 331 332 335 331 326 316 310 297 292 283 280 272 253 249 254
51 71 121 102 94 49 12 49 52 51 45 40 82 90 60 30 25 30 33 12 6 5 359 354 344 340 335 330 331 331 325 327 327 323 321 319 319 323 319 317 316 312 302 294 284 274 268 263 259
338 85 67 23 61 51 77 73 67 59 41 61 77 54 41 33 29 21 11 9 4 356 351 341 331 327 323 323 324 317 313 314 314 310 313 311 309 304 307 304 305 304 304 297 287 279 272 266 264
334 51 37 43 68 106 32 93 74 72 68 63 66 58 43 29 12 4 352 341 337 335 330 325 322 318 314 314 314 314 313 310 302 295 296 294 302 302 301 295 294 295 295 292 290 283 271 265 261
60 67 33 43 101 100 63 71 77 73 65 60 56 41 29 18 9 358 350 342 340 341 337 334 332 329 328 325 321 321 318 315 309 298 287 285 285 291 301 296 295 285 282 282 282 279 274 266 255
43 115 94 90 111 102 98 63 74 115 59 66 56 39 27 16 7 355 347 346 341 338 334 334 332 330 328 326 322 321 319 316 312 311 307 295 282 280 286 297 294 278 276 280 281 277 265 264 260
101 53 99 117 121 94 86 98 82 86 98 64 61 42 24 8 358 352 350 347 341 335 331 329 328 325 321 322 318 318 317 316 314 310 307 309 303 284 277 286 289 287 286 283 285 285 277 264 255
94 105 96 106 97 95 96 90 96 87 78 60 45 31 11 360 356 357 351 344 341 338 337 332 330 326 323 320 316 313 310 307 309 307 303 305 302 295 289 274 279 291 281 277 275 274 279 280 269
128 129 131 117 114 112 94 78 88 64 64 47 32 17 5 6 0 352 349 345 344 341 337 335 331 327 326 320 315 312 309 307 301 297 292 298 296 299 292 291 278 280 284 264 261 274 274 274 278
129 116 106 133 137 130 100 45 60 69 56 38 22 5 10 2 359 355 350 344 343 338 336 329 325 325 320 316 313 314 308 305 305 300 300 292 291 290 292 289 286 278 275 277 266 266 264 276 278
126 106 126 163 171 181 72 159 64 67 54 32 10 13 7 1 356 352 347 342 342 337 334 331 330 322 323 322 320 312 309 306 304 295 298 291 283 286 284 281 279 278 280 268 263 268 266 268 270
12 313 84 235 32 124 115 152 102 71 47 19 19 13 3 356 353 351 347 343 339 338 335 335 327 329 322 325 320 317 312 309 303 298 292 290 283 274 271 276 272 276 276 276 267 260 259 259 257
302 320 63 141 79 62 93 116 122 78 36 28 23 11 358 355 353 347 344 340 342 339 334 332 332 329 327 324 320 317 310 309 303 300 298 291 284 281 276 276 274 273 271 265 257 258 258 260 262
248 192 52 342 170 108 119 125 132 99 43 36 19 4 355 353 349 349 343 344 340 342 336 336 328 329 324 328 324 316 315 302 293 289 295 288 284 282 273 271 272 265 267 266 265 260 250 254 259
36 67 1 301 338 99 132 124 140 175 44 33 13 356 357 352 351 347 347 344 345 339 339 334 344 329 331 332 325 316 314 309 304 304 305 285 277 277 278 272 273 270 263 265 259 258 261 252 256
322 137 271 243 321 68 116 78 99 341 25 18 6 2 0 353 350 348 344 345 344 344 340 343 339 342 338 337 329 323 318 315 311 310 307 303 292 281 264 267 264 265 261 260 257 250 252 257 255
305 194 317 267 167 216 167 62 61 351 10 2 3 2 356 352 349 346 349 346 346 340 349 347 345 341 338 339 335 330 324 318 316 311 310 304 297 288 273 264 263 261 256 255 257 256 259 252 251
269 312 294 227 164 95 311 85 298 11 359 1 351 356 355 351 348 349 348 347 344 345 346 347 344 343 349 351 347 340 333 328 326 324 320 314 303 293 283 268 256 256 257 258 254 253 254 253 250
324 336 37 44 72 61 329 115 324 7 340 350 353 356 353 350 347 349 351 349 347 352 351 357 353 357 359 358 355 350 344 340 335 332 327 321 314 303 289 275 260 252 253 254 254 251 248 246 245
2 28 2 15 9 236 104 61 87 347 351 354 356 351 350 350 353 350 353 349 348 352 358 1 2 2 4 2 359 356 350 345 339 334 328 323 317 311 298 278 263 258 251 250 250 248 247 247 246
358 63 93 297 328 288 11 124 143 2 13 5 355 352 350 352 351 354 352 349 348 352 354 2 4 3 4 0 358 357 351 346 339 332 325 323 320 314 306 282 263 250 251 248 244 242 244 242 245
336 29 184 115 296 2 244 338 35 354 359 356 354 353 350 353 351 353 350 350 348 355 357 359 359 6 6 359 356 360 353 352 345 342 340 342 339 323 307 289 264 263 245 239 236 240 235 235 234
79 315 23 16 23 317 316 68 317 343 351 355 353 348 348 350 352 353 350 349 350 358 1 2 0 6 6 1 359 1 359 357 351 350 345 351 352 335 310 292 256 259 257 252 241 236 238 237 235
350 14 20 111 81 177 310 294 357 352 2 351 345 347 349 347 349 350 348 349 357 357 359 0 1 3 4 360 357 0 3 1 4 1 356 359 6 9 13 326 263 256 259 249 249 254 241 241 247
62 67 88 107 300 237 162 273 69 22 357 348 345 343 345 348 348 349 350 350 360 358 356 357 1 4 5 359 3 6 8 12 13 12 12 9 17 16 19 19 321 270 261 254 249 244 255 238 240
Height
1529 1529 1528 1529 1538 1540 1543 1544 1531 1531 1533 1540 1535 1538 1556 1566 1570 1581 1580 1577 1574 1568 1566 1563 1559 1557 1554 1552 1550 1548 1546 1545 1543 1541 1540 1538 1537 1536 1536 1535 1535 1535 1534 1533 1532 1532 1533 1533 1533
1529 1528 1529 1529 1544 1552 1549 1536 1536 1538 1540 1538 1541 1550 1557 1573 1577 1580 1580 1577 1574 1572 1567 1564 1562 1558 1555 1552 1550 1548 1546 1544 1542 1540 1538 1537 1535 1534 1533 1533 1533 1533 1532 1531 1530 1530 1530 1531 1531
1529 1527 1529 1533 1547 1557 1554 1541 1538 1541 1538 1538 1550 1558 1570 1583 1583 1583 1581 1578 1576 1572 1569 1567 1564 1562 1558 1555 1553 1550 1548 1545 1543 1540 1538 1536 1535 1533 1532 1531 1529 1529 1529 1529 1528 1528 1528 1528 1528
1528 1530 1532 1543 1552 1551 1555 1552 1550 1541 1545 1547 1553 1568 1581 1586 1584 1584 1582 1579 1576 1573 1570 1569 1565 1562 1560 1558 1554 1551 1549 1546 1544 1542 1539 1536 1533 1532 1530 1529 1529 1527 1526 1526 1524 1525 1525 1525 1526
1529 1530 1540 1551 1552 1557 1555 1555 1552 1556 1556 1558 1555 1580 1583 1586 1585 1584 1581 1578 1577 1574 1571 1568 1565 1562 1559 1558 1555 1552 1549 1547 1544 1542 1539 1537 1533 1531 1529 1527 1526 1524 1524 1523 1522 1522 1521 1522 1523
1530 1531 1547 1559 1560 1555 1557 1558 1555 1561 1567 1565 1568 1576 1585 1586 1586 1584 1581 1580 1577 1574 1571 1567 1563 1561 1558 1557 1554 1551 1549 1547 1543 1541 1538 1537 1533 1531 1528 1525 1524 1522 1521 1520 1519 1519 1518 1519 1520
1531 1534 1543 1552 1559 1561 1564 1559 1563 1570 1569 1571 1572 1582 1589 1588 1586 1585 1584 1580 1577 1573 1569 1565 1562 1560 1557 1554 1551 1548 1547 1543 1541 1539 1536 1533 1531 1530 1527 1524 1522 1521 1519 1518 1517 1516 1515 1515 1514
1530 1532 1540 1555 1562 1577 1574 1566 1573 1571 1579 1576 1577 1586 1589 1589 1586 1584 1581 1578 1575 1572 1569 1565 1560 1557 1552 1549 1547 1544 1540 1537 1534 1533 1530 1527 1525 1524 1523 1521 1519 1518 1516 1515 1514 1513 1512 1511 1511
1530 1547 1563 1562 1562 1578 1575 1572 1576 1583 1579 1581 1584 1590 1590 1586 1584 1581 1579 1576 1574 1570 1566 1561 1557 1554 1550 1545 1542 1539 1534 1532 1529 1527 1524 1522 1520 1518 1516 1516 1515 1513 1512 1511 1510 1509 1509 1507 1506
1533 1560 1565 1560 1564 1577 1576 1573 1576 1585 1587 1587 1588 1589 1588 1586 1584 1582 1578 1575 1571 1568 1564 1560 1556 1552 1547 1543 1538 1533 1530 1527 1524 1521 1519 1516 1513 1511 1511 1511 1510 1509 1507 1506 1504 1504 1503 1503 1503
1548 1562 1565 1570 1568 1570 1576 1576 1580 1583 1589 1590 1589 1590 1588 1585 1583 1581 1577 1573 1570 1565 1562 1557 1553 1548 1544 1539 1534 1530 1525 1522 1518 1515 1513 1510 1508 1506 1504 1504 1504 1503 1502 1500 1499 1498 1498 1498 1498
1555 1562 1562 1569 1570 1569 1574 1582 1586 1586 1590 1590 1590 1589 1588 1585 1582 1578 1575 1571 1567 1562 1558 1555 1549 1544 1540 1535 1531 1527 1523 1519 1513 1510 1507 1505 1501 1498 1498 1497 1497 1497 1497 1494 1494 1493 1493 1492 1492
1556 1565 1567 1570 1571 1575 1578 1583 1585 1589 1590 1591 1590 1589 1587 1584 1581 1578 1574 1569 1565 1559 1554 1550 1544 1539 1534 1529 1526 1521 1517 1514 1509 1505 1503 1499 1497 1493 1491 1491 1490 1490 1491 1489 1488 1488 1487 1487 1487
1555 1563 1569 1572 1574 1580 1578 1586 1586 1592 1591 1591 1590 1589 1587 1584 1580 1575 1570 1565 1560 1554 1548 1543 1537 1532 1528 1522 1518 1514 1510 1505 1503 1500 1497 1493 1492 1488 1485 1483 1484 1483 1484 1483 1482 1481 1481 1482 1482
1558 1566 1571 1574 1573 1579 1573 1590 1592 1593 1592 1592 1591 1589 1585 1581 1577 1573 1568 1562 1555 1550 1544 1538 1531 1525 1520 1515 1509 1504 1500 1496 1493 1491 1488 1486 1486 1484 1480 1478 1476 1476 1477 1477 1477 1477 1476 1476 1477
1558 1563 1573 1572 1571 1573 1576 1598 1594 1594 1593 1592 1590 1587 1584 1579 1575 1570 1565 1559 1553 1546 1539 1532 1525 1519 1512 1506 1500 1494 1490 1486 1482 1481 1479 1478 1478 1475 1473 1471 1468 1469 1468 1470 1469 1471 1471 1470 1471
1564 1569 1568 1571 1568 1571 1577 1593 1595 1594 1592 1591 1589 1586 1583 1578 1573 1568 1563 1556 1549 1541 1534 1526 1519 1512 1506 1499 1493 1487 1482 1478 1474 1472 1470 1468 1467 1466 1463 1462 1460 1461 1461 1462 1462 1463 1463 1464 1465
1577 1572 1569 1571 1574 1576 1583 1593 1593 1593 1591 1591 1590 1586 1581 1576 1571 1566 1560 1553 1545 1537 1529 1521 1512 1506 1499 1492 1485 1480 1475 1470 1466 1463 1460 1458 1456 1455 1453 1452 1453 1453 1452 1454 1455 1456 1456 1457 1458
1569 1567 1571 1570 1569 1577 1585 1591 1592 1592 1592 1591 1588 1584 1581 1576 1570 1564 1557 1549 1540 1531 1523 1515 1507 1499 1492 1484 1478 1472 1466 1462 1457 1454 1451 1448 1446 1445 1445 1444 1443 1443 1444 1446 1446 1448 1449 1450 1452
1565 1569 1576 1569 1566 1575 1588 1593 1592 1591 1594 1591 1590 1586 1580 1574 1565 1559 1552 1544 1536 1527 1518 1509 1500 1493 1484 1478 1472 1466 1459 1453 1447 1441 1438 1436 1434 1434 1433 1433 1432 1433 1434 1437 1439 1439 1441 1442 1446
1568 1573 1576 1579 1570 1575 1587 1595 1596 1594 1594 1592 1589 1585 1579 1572 1564 1556 1548 1541 1532 1523 1514 1504 1496 1487 1479 1472 1464 1457 1451 1445 1439 1434 1429 1425 1424 1422 1422 1423 1423 1424 1426 1427 1429 1431 1433 1434 1436
1579 1565 1569 1570 1573 1581 1574 1601 1600 1598 1595 1592 1587 1582 1577 1570 1563 1555 1546 1537 1529 1521 1511 1501 1492 1483 1475 1467 1459 1452 1445 1436 1431 1425 1420 1415 1413 1411 1411 1411 1413 1414 1416 1418 1420 1423 1425 1427 1430
1576 1564 1561 1560 1569 1578 1575 1600 1609 1600 1597 1591 1587 1584 1576 1571 1564 1554 1546 1537 1529 1518 1507 1498 1489 1480 1471 1463 1455 1447 1439 1432 1424 1418 1411 1407 1403 1400 1399 1399 1401 1403 1405 1408 1410 1414 1417 1420 1423
1575 1563 1558 1562 1572 1590 1578 1590 1620 1610 1604 1596 1590 1584 1577 1569 1562 1554 1544 1536 1525 1515 1505 1495 1486 1477 1467 1459 1451 1443 1435 1426 1418 1411 1404 1399 1394 1391 1389 1389 1390 1392 1395 1398 1401 1405 1408 1412 1415
1582 1580 1594 1585 1595 1590 1584 1600 1612 1608 1603 1599 1593 1584 1578 1570 1561 1553 1543 1533 1523 1513 1503 1493 1484 1474 1465 1456 1447 1439 1430 1422 1413 1405 1397 1391 1386 1382 1380 1380 1380 1382 1386 1389 1393 1396 1399 1403 1407
1593 1599 1612 1600 1607 1606 1589 1612 1616 1607 1604 1598 1592 1585 1577 1569 1561 1552 1544 1535 1523 1513 1503 1492 1482 1473 1463 1454 1445 1435 1427 1418 1409 1400 1393 1385 1378 1373 1370 1370 1371 1374 1377 1381 1384 1388 1392 1395 1399
1599 1608 1602 1612 1610 1616 1609 1606 1605 1603 1601 1596 1590 1581 1573 1566 1559 1550 1543 1534 1523 1513 1503 1493 1483 1472 1462 1453 1444 1434 1425 1415 1405 1396 1388 1380 1372 1364 1360 1363 1364 1367 1371 1374 1377 1381 1384 1388 1391
1604 1605 1614 1624 1644 1627 1614 1618 1624 1611 1602 1596 1588 1580 1574 1567 1557 1550 1543 1533 1523 1513 1503 1493 1483 1473 1463 1453 1445 1434 1423 1413 1402 1392 1383 1375 1367 1356 1354 1358 1361 1364 1366 1369 1372 1375 1378 1381 1384
1615 1620 1620 1623 1633 1652 1645 1621 1614 1613 1604 1598 1592 1586 1578 1570 1561 1553 1544 1534 1523 1513 1503 1493 1483 1474 1463 1454 1445 1434 1423 1412 1401 1390 1381 1373 1366 1359 1357 1357 1359 1362 1364 1366 1368 1370 1373 1375 1378
1618 1624 1630 1650 1644 1645 1655 1631 1612 1606 1606 1601 1593 1587 1580 1573 1564 1555 1545 1533 1522 1513 1503 1494 1485 1475 1466 1457 1447 1436 1425 1413 1401 1389 1379 1371 1367 1363 1361 1360 1360 1361 1362 1363 1365 1367 1369 1371 1373